Weather History for KPSX - October, 2014

Change the Weather History Date:

Friday, October 3, 2014

  Actual Average Record
Temperature  
Mean Temperature 74 °F -  
Max Temperature 84 °F 85 °F 93 °F (1954)
Min Temperature 63 °F 66 °F 49 °F (1961)
Cooling Degree Days 9    
Growing Degree Days 24 (Base 50)    
Moisture  
Dew Point 67 °F    
Average Humidity 79    
Maximum Humidity 97    
Minimum Humidity 39    
Precipitation  
Precipitation 0.43 in - - ()
Sea Level Pressure  
Sea Level Pressure 30.01 in    
Wind  
Wind Speed 13 mph (North)    
Max Wind Speed 30 mph    
Max Gust Speed 45 mph    
Visibility 8 miles    
Events Rain , Thunderstorm    
Averages and records for this station are not official NWS values.
T = Trace of Precipitation, MM = Missing Value Source: NWS Daily Summary

Daily Weather History Graph

Daily Weather History Graph

Search for Another Location

Airport or City:

Trip Planner

Search our weather history database for the weather conditions in past years. The results will help you decide how hot, cold, wet, or windy it might be!

Date:

Astronomy

Oct. 03, 2014 Rise Set
Actual Time 7:19 AM CDT 7:08 PM CDT
Civil Twilight 6:55 AM CDT 7:31 PM CDT
Nautical Twilight 6:28 AM CDT 7:59 PM CDT
Astronomical Twilight 6:00 AM CDT 8:26 PM CDT
Moon 3:41 PM CDT (10/3) 2:04 AM CDT (10/3)
Length of Visible Light 12h 36m
Length of Day
11h 49m
Waxing Gibbous, 71% of the Moon is Illuminated
Oct 3
Waxing Gibbous
Oct 8
Full
Oct 15
Last Quarter
Oct 23
New
Oct 30
First Quarter

Hourly Weather History & Observations

Time (CDT) Temp. Heat Index Dew Point Humidity Pressure Visibility Wind Dir Wind Speed Gust Speed Precip Events Conditions
12:53 AM 84.0 °F 97.3 °F 80.1 °F 88% 29.91 in 10.0 mi South 12.7 mph - 0.00 in Rain Light Rain
1:21 AM 82.9 °F 94.8 °F 80.1 °F 91% 29.90 in 9.0 mi North - - 0.00 in   Mostly Cloudy
1:35 AM 82.9 °F 94.8 °F 80.1 °F 91% 29.92 in 9.0 mi SSW 10.4 mph 20.7 mph 0.00 in   Scattered Clouds
1:42 AM 82.9 °F 94.8 °F 80.1 °F 91% 29.92 in 9.0 mi SSW 10.4 mph - 0.00 in   Mostly Cloudy
1:53 AM 82.9 °F 94.8 °F 80.1 °F 91% 29.92 in 8.0 mi North - - 0.00 in   Mostly Cloudy
2:27 AM 82.9 °F 93.8 °F 79.0 °F 88% 29.91 in 8.0 mi South 15.0 mph 24.2 mph N/A   Mostly Cloudy
2:53 AM 73.9 °F - 69.1 °F 85% 29.98 in 10.0 mi NNW 17.3 mph 33.4 mph 0.00 in Rain Light Rain
2:59 AM 73.9 °F - 69.1 °F 85% 29.98 in 10.0 mi NNW 29.9 mph 44.9 mph 0.00 in   Mostly Cloudy
3:14 AM 72.0 °F - 69.1 °F 91% 29.98 in 4.0 mi NNW 17.3 mph 29.9 mph 0.06 in Rain , Thunderstorm Heavy Rain
3:19 AM 71.1 °F - 70.0 °F 96% 29.98 in 2.5 mi North 15.0 mph - 0.10 in Rain , Thunderstorm Heavy Rain
3:24 AM 71.1 °F - 70.0 °F 96% 29.98 in 3.0 mi North 11.5 mph - 0.13 in Rain , Thunderstorm Heavy Rain
3:31 AM 71.1 °F - 70.0 °F 96% 29.98 in 5.0 mi North 12.7 mph - 0.14 in Rain , Thunderstorm Heavy Rain
3:50 AM 71.6 °F - 69.8 °F 94% 30.00 in 5.0 mi NNW 10.4 mph - N/A Rain , Thunderstorm Thunderstorms and Rain
3:53 AM 71.1 °F - 70.0 °F 96% 30.00 in 5.0 mi NW 8.1 mph - 0.18 in Rain , Thunderstorm Heavy Thunderstorms and Rain
4:02 AM 71.1 °F - 69.1 °F 93% 29.99 in 2.5 mi NNW 8.1 mph - 0.06 in Rain , Thunderstorm Heavy Rain
4:09 AM 71.1 °F - 69.1 °F 93% 29.99 in 3.0 mi NW 10.4 mph - 0.08 in Rain , Thunderstorm Heavy Thunderstorms and Rain
4:24 AM 70.0 °F - 69.1 °F 97% 29.99 in 2.5 mi NNW 5.8 mph - 0.17 in Rain , Thunderstorm Heavy Rain
4:41 AM 71.1 °F - 69.1 °F 93% 29.98 in 7.0 mi North - - 0.23 in Rain , Thunderstorm Light Rain
4:53 AM 71.1 °F - 69.1 °F 93% 29.98 in 8.0 mi North - - 0.23 in Rain Light Rain
5:53 AM 71.1 °F - 70.0 °F 96% 29.98 in 10.0 mi Calm Calm - 0.02 in   Clear
6:53 AM 70.0 °F - 69.1 °F 97% 30.01 in 10.0 mi NW 9.2 mph - N/A   Clear
7:53 AM 71.6 °F - 69.8 °F 94% 30.01 in 10.0 mi NW 11.5 mph - N/A   Clear
8:53 AM 72.0 °F - 69.1 °F 91% 30.04 in 10.0 mi North 13.8 mph - N/A   Clear
9:53 AM 73.0 °F - 64.0 °F 73% 30.05 in 10.0 mi NNE 15.0 mph - N/A   Clear
10:53 AM 77.0 °F - 62.1 °F 60% 30.06 in 10.0 mi NNE 20.7 mph - N/A   Clear
11:53 AM 79.0 °F - 61.0 °F 54% 30.08 in 10.0 mi NNE 16.1 mph 23.0 mph N/A   Clear
12:53 PM 81.0 °F 81.7 °F 61.0 °F 50% 30.07 in 10.0 mi NNE 15.0 mph - N/A   Clear
1:53 PM 82.9 °F 83.3 °F 61.0 °F 47% 30.05 in 10.0 mi NNE 8.1 mph - N/A   Clear
2:53 PM 84.0 °F 84.4 °F 61.0 °F 46% 30.03 in 10.0 mi North 15.0 mph - N/A   Clear
3:53 PM 84.0 °F 84.0 °F 60.1 °F 44% 30.02 in 10.0 mi North 15.0 mph - N/A   Clear
4:53 PM 82.9 °F 82.1 °F 55.9 °F 39% 30.02 in 10.0 mi North 16.1 mph - N/A   Clear
5:53 PM 82.0 °F 81.7 °F 57.0 °F 42% 30.03 in 10.0 mi North 16.1 mph - N/A   Clear
6:53 PM 75.9 °F - 57.9 °F 54% 30.04 in 10.0 mi North 10.4 mph - N/A   Clear
7:53 PM 70.0 °F - 59.0 °F 68% 30.07 in 10.0 mi North 8.1 mph - N/A   Clear
8:53 PM 68.0 °F - 59.0 °F 73% 30.10 in 10.0 mi North 6.9 mph - N/A   Clear
9:53 PM 66.0 °F - 59.0 °F 78% 30.12 in 10.0 mi North 8.1 mph - N/A   Unknown
10:53 PM 64.9 °F - 57.9 °F 78% 30.14 in 10.0 mi North 9.2 mph - N/A   Unknown
11:53 PM 63.0 °F - 57.9 °F 84% 30.15 in 10.0 mi NNE 8.1 mph - N/A   Unknown